EW9952 Weather Reports


time (UTC)temp
C
wind
direction
speed
KPH
gust
KPH
rain 1hr
cm
rain 24hr
cm
rain mn
cm
humidity
%
barometer
mb
20260505230502 12 290 0.0 1.6 0.00 0.00 0.00 42 1007.3
20260505225956 12 288 0.0 1.6 0.00 0.00 0.00 39 1007.3
20260505225450 12 295 0.0 1.6 0.00 0.00 0.00 38 1007.4
20260505224945 12 297 0.0 0.0 0.00 0.00 0.00 42 1007.6
20260505224439 12 299 0.0 0.0 0.00 0.00 0.00 40 1007.4
20260505223932 12 272 0.0 4.8 0.00 0.00 0.00 40 1007.6
20260505223427 12 276 0.0 4.8 0.00 0.00 0.00 37 1007.6
20260505222921 12 266 0.0 0.0 0.00 0.00 0.00 38 1007.4
20260505222414 12 337 0.0 1.6 0.00 0.00 0.00 39 1007.3
20260505221908 12 249 0.0 1.6 0.00 0.00 0.00 37 1007.4
20260505221403 12 267 0.0 6.4 0.00 0.00 0.00 37 1007.4
20260505220856 12 267 0.0 6.4 0.00 0.00 0.00 37 1007.4
20260505215845 12 224 0.0 4.8 0.00 0.00 0.00 37 1007.6
20260505215339 12 285 0.0 4.8 0.00 0.00 0.00 38 1007.6
20260505214833 13 263 0.0 1.6 0.00 0.00 0.00 39 1007.6
20260505214326 12 309 0.0 1.6 0.00 0.00 0.00 37 1007.6
20260505213820 13 294 0.0 0.0 0.00 0.00 0.00 38 1007.4
20260505213314 13 250 0.0 0.0 0.00 0.00 0.00 39 1007.4
20260505212808 13 237 0.0 1.6 0.00 0.00 0.00 37 1007.6
20260505211756 13 318 0.0 0.0 0.00 0.00 0.00 37 1007.4
20260505211250 13 279 0.0 1.6 0.00 0.00 0.00 39 1007.4
20260505210245 13 295 0.0 1.6 0.00 0.00 0.00 35 1007.6
20260505205746 13 271 0.0 1.6 0.00 0.00 0.00 35 1007.4
20260505205246 13 226 0.0 1.6 0.00 0.00 0.00 38 1007.6
20260505204745 13 267 0.0 6.4 0.00 0.00 0.00 35 1007.6
20260505203745 13 291 0.0 0.0 0.00 0.00 0.00 36 1007.4
20260505203245 13 309 0.0 0.0 0.00 0.00 0.00 38 1007.6
20260505202746 13 272 0.0 0.0 0.00 0.00 0.00 35 1007.8
20260505202246 13 279 0.0 1.6 0.00 0.00 0.00 36 1007.9
20260505201745 13 318 0.0 1.6 0.00 0.00 0.00 36 1007.9
20260505201246 13 313 0.0 1.6 0.00 0.00 0.00 36 1007.8
20260505200746 13 303 0.0 3.2 0.00 0.00 0.00 36 1007.8
20260505195745 13 312 0.0 6.4 0.00 0.00 0.00 35 1007.8
20260505195246 13 231 0.0 6.4 0.00 0.00 0.00 33 1007.8
20260505194746 13 276 0.0 1.6 0.00 0.00 0.00 37 1007.9
20260505193740 13 248 0.0 3.2 0.00 0.00 0.00 35 1007.9
20260505193233 13 308 0.0 14.5 0.00 0.00 0.00 37 1008.0
20260505191716 13 315 0.0 6.4 0.00 0.00 0.00 33 1008.1
20260505190703 13 195 0.0 0.0 0.00 0.00 0.00 37 1008.2
20260505190158 13 206 0.0 4.8 0.00 0.00 0.00 36 1008.1
20260505185651 13 341 0.0 4.8 0.00 0.00 0.00 35 1008.2
20260505185145 13 285 0.0 4.8 0.00 0.00 0.00 34 1008.1
20260505183627 13 232 0.0 20.9 0.00 0.00 0.00 40 1008.0
20260505183121 13 257 0.0 20.9 0.00 0.00 0.00 35 1008.0
20260505182615 13 262 1.6 14.5 0.00 0.00 0.00 34 1008.0
20260505182109 13 297 1.6 14.5 0.00 0.00 0.00 33 1008.0
20260505181058 13 253 0.0 3.2 0.00 0.00 0.00 35 1008.0
20260505180552 13 301 0.0 3.2 0.00 0.00 0.00 39 1008.0
20260505180045 13 271 0.0 8.0 0.00 0.00 0.00 35 1007.7
20260505175539 13 279 0.0 8.0 0.00 0.00 0.00 35 1007.8
20260505175033 13 321 0.0 6.4 0.00 0.00 0.00 36 1007.7
20260505174527 12 322 0.0 8.0 0.00 0.00 0.00 34 1007.6
20260505174021 12 237 0.0 8.0 0.00 0.00 0.00 34 1007.6
20260505173515 12 272 0.0 0.0 0.00 0.00 0.00 36 1007.6
20260505173010 12 301 0.0 12.9 0.00 0.00 0.00 37 1007.6
20260505171958 12 216 0.0 0.0 0.00 0.00 0.00 39 1007.7
20260505171452 12 268 0.0 1.6 0.00 0.00 0.00 37 1007.7
20260505170945 12 284 0.0 1.6 0.00 0.00 0.00 39 1007.7
20260505170439 12 277 0.0 0.0 0.00 0.00 0.00 39 1007.7
20260505165427 12 309 0.0 11.3 0.00 0.00 0.00 40 1008.0
20260505164921 12 251 0.0 11.3 0.00 0.00 0.00 37 1008.0
20260505164415 12 274 0.0 3.2 0.00 0.00 0.00 41 1007.8
20260505163910 11 324 0.0 3.2 0.00 0.00 0.00 40 1007.7
20260505162858 11 310 0.0 1.6 0.00 0.00 0.00 37 1007.6
20260505162352 12 278 0.0 6.4 0.00 0.00 0.00 40 1007.4
20260505161340 11 216 0.0 4.8 0.00 0.00 0.00 42 1007.4
20260505160833 11 266 0.0 3.2 0.00 0.00 0.00 41 1007.6
20260505160328 11 299 0.0 0.0 0.00 0.00 0.00 44 1007.6
20260505153252 11 262 0.0 0.0 0.00 0.00 0.00 43 1007.4
20260505151733 10 297 0.0 1.6 0.00 0.00 0.00 47 1007.7
20260505150721 10 261 0.0 0.0 0.00 0.00 0.00 45 1007.7
20260505150215 10 260 0.0 0.0 0.00 0.00 0.00 45 1007.8
20260505140154 9 171 0.0 0.0 0.00 0.00 0.00 50 1007.9
20260505124624 8 256 0.0 0.0 0.00 0.00 0.00 56 1007.4
20260505124119 8 256 0.0 0.0 0.00 0.00 0.00 57 1007.6
20260505123613 8 254 0.0 0.0 0.00 0.00 0.00 57 1007.6
20260505122601 8 255 0.0 0.0 0.00 0.00 0.00 59 1007.6
20260505121549 8 255 0.0 0.0 0.00 0.00 0.00 56 1007.8
20260505120537 8 254 0.0 0.0 0.00 0.00 0.00 56 1007.4
20260505120030 8 254 0.0 0.0 0.00 0.00 0.00 58 1007.6
20260505115018 8 254 0.0 0.0 0.00 0.00 0.00 58 1007.9
20260505114006 8 254 0.0 0.0 0.00 0.00 0.00 59 1007.3
20260505112954 8 232 0.0 0.0 0.00 0.00 0.00 58 1006.8
20260505112449 8 208 0.0 0.0 0.00 0.00 0.00 61 1006.5
20260505111942 8 185 0.0 0.0 0.00 0.00 0.00 61 1006.0
20260505111437 8 185 0.0 0.0 0.00 0.00 0.00 61 1006.5
20260505110930 8 185 0.0 0.0 0.00 0.00 0.00 61 1005.3
20260505110425 8 185 0.0 0.0 0.00 0.00 0.00 61 1005.7
20260505101325 8 185 0.0 0.0 0.00 0.00 0.00 60 1005.9
20260505100818 8 185 0.0 0.0 0.00 0.00 0.00 64 1005.6
20260505095806 8 185 0.0 0.0 0.00 0.00 0.00 61 1005.0
20260505095300 8 185 0.0 0.0 0.00 0.00 0.00 58 1005.0
20260505094758 8 185 0.0 0.0 0.00 0.00 0.00 61 1005.0
20260505094257 8 185 0.0 0.0 0.00 0.00 0.00 59 1005.1
20260505093757 8 185 0.0 0.0 0.00 0.00 0.00 59 1005.0
20260505093253 8 185 0.0 0.0 0.00 0.00 0.00 61 1005.1
20260505092753 9 185 0.0 0.0 0.00 0.00 0.00 60 1004.9
20260505092250 9 185 0.0 0.0 0.00 0.00 0.00 59 1005.1
20260505091749 9 299 0.0 0.0 0.00 0.00 0.00 58 1004.9
20260505090746 9 282 0.0 1.6 0.00 0.00 0.00 58 1005.1
20260505090245 8 289 0.0 1.6 0.00 0.00 0.00 58 1004.9
20260505085744 8 285 0.0 0.0 0.00 0.00 0.00 58 1004.5
20260505084741 9 285 0.0 0.0 0.00 0.00 0.00 57 1004.4
20260505084241 9 251 0.0 0.0 0.00 0.00 0.00 56 1004.3
20260505083740 9 251 0.0 0.0 0.00 0.00 0.00 56 1004.4
20260505083239 9 244 0.0 0.0 0.00 0.00 0.00 57 1004.3
20260505082737 10 256 0.0 0.0 0.00 0.00 0.00 56 1003.8
20260505082235 10 256 0.0 0.0 0.00 0.00 0.00 55 1003.6
20260505081230 10 247 0.0 1.6 0.00 0.00 0.00 55 1003.7
20260505080728 10 247 0.0 1.6 0.00 0.00 0.00 55 1003.6
20260505080229 10 289 0.0 0.0 0.00 0.00 0.00 55 1003.4
20260505075723 11 290 0.0 0.0 0.00 0.00 0.00 57 1003.3
20260505075225 11 290 0.0 0.0 0.00 0.00 0.00 56 1003.3
20260505074724 11 290 0.0 0.0 0.00 0.00 0.00 54 1002.9
20260505074224 11 293 0.0 1.6 0.00 0.00 0.00 55 1002.9
20260505073223 11 151 0.0 1.6 0.00 0.00 0.00 53 1002.4
20260505072725 12 196 0.0 1.6 0.00 0.00 0.00 51 1002.4
20260505072223 12 289 0.0 0.0 0.00 0.00 0.00 51 1002.3
20260505071224 12 285 0.0 1.6 0.00 0.00 0.00 50 1002.2
20260505070723 12 283 0.0 0.0 0.00 0.00 0.00 49 1002.1
20260505070223 12 280 0.0 0.0 0.00 0.00 0.00 47 1001.9
20260505065724 12 332 0.0 3.2 0.00 0.00 0.00 47 1002.1
20260505065222 12 277 0.0 3.2 0.00 0.00 0.00 47 1002.0
20260505064724 12 281 0.0 1.6 0.00 0.00 0.00 47 1001.8
20260505063724 13 277 0.0 0.0 0.00 0.00 0.00 45 1001.7
20260505063222 13 287 0.0 0.0 0.00 0.00 0.00 45 1001.6
20260505062715 13 287 0.0 0.0 0.00 0.00 0.00 45 1001.7
20260505062209 13 291 0.0 0.0 0.00 0.00 0.00 44 1001.7
20260505061157 13 304 0.0 1.6 0.00 0.00 0.00 43 1001.6
20260505060652 13 279 0.0 0.0 0.00 0.00 0.00 42 1001.6
20260505060146 13 296 0.0 0.0 0.00 0.00 0.00 43 1001.4
20260505055639 14 307 0.0 1.6 0.00 0.00 0.00 42 1001.4
20260505055133 14 265 0.0 1.6 0.00 0.00 0.00 41 1001.3
20260505054628 14 311 0.0 1.6 0.00 0.00 0.00 42 1001.3
20260505054121 14 295 0.0 1.6 0.00 0.00 0.00 42 1001.3
20260505053615 14 301 0.0 0.0 0.00 0.00 0.00 40 1001.2
20260505052603 15 246 0.0 1.6 0.00 0.00 0.00 40 1001.3
20260505052058 15 296 0.0 1.6 0.00 0.00 0.00 40 1001.3
20260505051552 15 299 0.0 3.2 0.00 0.00 0.00 39 1001.2
20260505051045 15 301 0.0 9.7 0.00 0.00 0.00 39 1001.0
20260505050540 15 290 0.0 9.7 0.00 0.00 0.00 39 1000.9
20260505041438 16 314 0.0 6.4 0.00 0.00 0.00 35 1000.5
20260505040933 16 280 0.0 6.4 0.00 0.00 0.00 35 1000.4
20260505040426 16 282 0.0 4.8 0.00 0.00 0.00 36 1000.4
20260505035920 16 272 0.0 4.8 0.00 0.00 0.00 36 1000.3
20260505034909 16 287 0.0 9.7 0.00 0.00 0.00 37 1000.1
20260505034402 17 313 0.0 11.3 0.00 0.00 0.00 36 1000.0
20260505033350 17 287 0.0 1.6 0.00 0.00 0.00 40 999.8
20260505032844 17 277 0.0 1.6 0.00 0.00 0.00 40 999.7
20260505032339 17 289 0.0 1.6 0.00 0.00 0.00 38 999.6
20260505031832 17 266 0.0 3.2 0.00 0.00 0.00 39 999.4
20260505031326 18 286 0.0 20.9 0.00 0.00 0.00 39 999.3
20260505030821 18 306 0.0 20.9 0.00 0.00 0.00 38 999.4
20260505030314 18 291 0.0 1.6 0.00 0.00 0.00 40 999.4
20260505025808 18 292 0.0 0.0 0.00 0.00 0.00 38 999.4
20260505024756 19 291 0.0 14.5 0.00 0.00 0.00 37 999.4
20260505024251 19 135 0.0 11.3 0.00 0.00 0.00 37 999.2
20260505023745 20 298 0.0 11.3 0.00 0.00 0.00 37 999.0
20260505023239 20 276 0.0 6.4 0.00 0.00 0.00 38 998.9
20260505022738 20 286 0.0 11.3 0.00 0.00 0.00 39 998.9
20260505021737 20 300 0.0 3.2 0.00 0.00 0.00 44 998.6
20260505021237 20 308 0.0 3.2 0.00 0.00 0.00 48 998.6
20260505020737 20 275 0.0 4.8 0.00 0.00 0.00 52 998.5
20260505020237 20 284 0.0 4.8 0.00 0.00 0.00 52 998.5
20260505015237 20 228 0.0 8.0 0.00 0.00 0.00 52 998.1
20260505014734 20 249 0.0 8.0 0.00 0.00 0.00 53 997.7
20260505014233 20 18 0.0 0.0 0.00 0.00 0.00 53 997.4
20260505013729 20 165 0.0 0.0 0.00 0.00 0.00 53 997.2
20260505013229 20 167 0.0 3.2 0.00 0.00 0.00 52 997.0
20260505012729 20 177 0.0 3.2 0.00 0.00 0.00 52 996.9
20260505011729 20 148 0.0 1.6 0.00 0.00 0.00 51 996.9
20260505011227 20 147 0.0 1.6 0.00 0.00 0.00 49 996.9
20260505010729 20 147 0.0 1.6 0.00 0.00 0.00 48 996.8
20260505005729 20 148 0.0 3.2 0.00 0.00 0.00 47 996.7
20260505004727 20 146 0.0 1.6 0.00 0.00 0.00 47 996.2
20260505004227 21 146 0.0 1.6 0.00 0.00 0.00 47 996.0
20260505003728 21 190 0.0 0.0 0.00 0.00 0.00 48 995.8
20260505002727 21 190 0.0 0.0 0.00 0.00 0.00 48 995.6
20260505002227 21 190 0.0 0.0 0.00 0.00 0.00 47 995.6
20260505001727 21 190 0.0 0.0 0.00 0.00 0.00 47 995.4
20260505001228 21 152 0.0 1.6 0.00 0.00 0.00 49 995.4
20260505000728 21 152 0.0 1.6 0.00 0.00 0.00 48 995.4
20260505000228 21 150 0.0 0.0 0.00 0.00 0.00 48 995.2
20260504235728 22 143 0.0 0.0 0.00 0.00 0.00 48 995.2
20260504234728 22 142 0.0 0.0 0.00 0.00 0.00 45 995.2
20260504234226 22 141 0.0 0.0 0.00 0.00 0.00 44 995.3
20260504233224 22 141 0.0 0.0 0.00 0.00 0.00 43 995.4
20260504232211 22 210 0.0 1.6 0.00 0.00 0.00 42 995.8
20260504231159 22 216 0.0 1.6 0.00 0.00 0.00 41 995.9